DW2736 Weather Reports


Display with metric or nautical units.
time (UTC)temp
F
wind
direction
speed
MPH
gust
MPH
rain 1hr
in
rain 24hr
in
rain mn
in
humidity
%
barometer
mb
20170427030531 56 206 0.0 0.0 0.01 0.07 0.07 97 1015.3
20170427030019 56 206 0.0 0.0 0.01 0.07 0.07 97 1015.4
20170427025525 56 206 0.0 0.0 0.01 0.07 0.07 97 1015.4
20170427025033 56 206 0.0 0.0 0.01 0.07 0.07 97 1015.4
20170427024522 56 206 0.0 0.0 0.01 0.07 0.07 97 1015.7
20170427024034 56 206 0.0 0.0 0.01 0.07 0.07 97 1015.8
20170427023521 56 206 0.0 0.0 0.00 0.06 0.06 97 1015.6
20170427023031 56 206 0.0 0.0 0.00 0.06 0.06 97 1015.7
20170427022519 56 206 0.0 0.0 0.00 0.06 0.06 97 1015.8
20170427022027 56 206 0.0 0.0 0.00 0.06 0.06 97 1016.1
20170427021518 56 206 0.0 0.0 0.00 0.06 0.06 97 1016.2
20170427021022 56 206 0.0 0.0 0.00 0.06 0.06 97 1015.9
20170427020531 56 206 0.0 0.0 0.00 0.06 0.06 97 1015.7
20170427020016 56 206 0.0 0.0 0.00 0.06 0.06 97 1015.8
20170427015530 56 206 0.0 0.0 0.00 0.06 0.06 97 1015.8
20170427015019 56 206 0.0 0.0 0.00 0.06 0.06 97 1015.9
20170427014528 56 206 0.0 0.0 0.00 0.06 0.06 97 1015.7
20170427014017 56 206 0.0 0.0 0.00 0.06 0.06 96 1015.6
20170427013526 56 206 0.0 0.0 0.00 0.06 0.06 97 1015.3
20170427013016 56 206 0.0 0.0 0.00 0.06 0.06 96 1015.5
20170427012524 56 206 0.0 0.0 0.00 0.06 0.06 96 1015.7
20170427012031 56 206 0.0 0.0 0.00 0.06 0.06 97 1015.8
20170427011518 56 206 0.0 0.0 0.00 0.06 0.06 96 1015.7
20170427011032 56 206 0.0 0.0 0.00 0.06 0.06 96 1015.6
20170427010521 56 206 0.0 0.0 0.00 0.06 0.06 96 1015.8
20170427010027 56 206 0.0 0.0 0.00 0.06 0.06 96 1015.5
20170427005515 56 206 0.0 0.0 0.00 0.06 0.06 96 1015.8
20170427005024 56 206 0.0 0.0 0.00 0.06 0.06 96 1015.9
20170427004535 56 206 0.0 0.0 0.00 0.06 0.06 97 1015.9
20170427004021 56 206 0.0 0.0 0.00 0.06 0.06 96 1015.7
20170427003531 56 206 0.0 0.0 0.00 0.06 0.06 96 1015.8
20170427003018 56 206 0.0 0.0 0.00 0.06 0.06 97 1015.8
20170427002531 56 206 0.0 0.0 0.00 0.06 0.06 97 1015.8
20170427002018 56 206 0.0 0.0 0.00 0.06 0.06 97 1015.6
20170427001527 56 206 0.0 0.0 0.00 0.06 0.06 96 1016.0
20170427001016 56 206 0.0 0.0 0.00 0.06 0.06 97 1016.3
20170427000524 56 206 0.0 0.0 0.00 0.06 0.06 97 1016.3
20170427000030 56 206 0.0 0.0 0.00 0.06 0.06 97 1016.2
20170426235517 56 206 0.0 0.0 0.00 0.06 0.06 97 1016.1
20170426235024 56 206 0.0 2.0 0.00 0.06 0.06 97 1016.1
20170426234535 56 206 0.0 2.0 0.00 0.06 0.06 97 1015.9
20170426234025 56 206 0.0 0.0 0.00 0.06 0.06 97 1015.9
20170426233534 56 206 0.0 0.0 0.00 0.06 0.06 97 1015.8
20170426233022 56 206 0.0 0.0 0.00 0.06 0.06 97 1015.9
20170426232531 56 206 0.0 0.0 0.00 0.06 0.06 97 1015.9
20170426232019 56 206 0.0 1.0 0.00 0.06 0.06 97 1016.2
20170426231528 56 206 0.0 1.0 0.00 0.06 0.06 97 1016.3
20170426231034 55 206 0.0 3.0 0.00 0.06 0.06 97 1016.4
20170426230522 55 206 0.0 3.0 0.00 0.06 0.06 96 1016.4
20170426230029 55 206 0.0 4.0 0.00 0.06 0.06 96 1016.5
20170426225519 55 206 0.0 2.0 0.00 0.06 0.06 97 1016.3
20170426225030 55 206 0.0 1.0 0.00 0.06 0.06 97 1016.2
20170426224519 55 206 0.0 8.0 0.00 0.06 0.06 97 1016.2
20170426224025 55 206 0.0 8.0 0.00 0.06 0.06 97 1016.4
20170426223533 55 206 0.0 3.0 0.00 0.06 0.06 97 1016.5
20170426223021 55 206 0.0 0.0 0.00 0.06 0.06 97 1016.7
20170426222528 55 206 0.0 0.0 0.00 0.06 0.06 97 1016.8
20170426222037 55 206 0.0 5.0 0.00 0.06 0.06 97 1017.0
20170426221526 55 206 0.0 6.0 0.00 0.06 0.06 96 1017.0
20170426221019 55 206 0.0 6.0 0.00 0.06 0.06 96 1017.1
20170426220527 55 206 0.0 2.0 0.00 0.06 0.06 97 1017.3
20170426220018 55 206 0.0 3.0 0.00 0.06 0.06 96 1017.4
20170426215525 55 206 0.0 3.0 0.01 0.06 0.06 97 1017.4
20170426215035 55 206 0.0 6.0 0.01 0.06 0.06 96 1017.5
20170426214523 55 206 1.0 6.0 0.01 0.06 0.06 96 1017.4
20170426214030 55 206 1.0 4.0 0.01 0.06 0.06 97 1017.2
20170426213518 55 206 0.0 4.0 0.01 0.06 0.06 97 1017.2
20170426213027 55 206 0.0 7.0 0.01 0.06 0.06 96 1017.0
20170426212520 55 206 0.0 7.0 0.01 0.06 0.06 96 1017.0
20170426212025 55 208 0.0 6.0 0.01 0.06 0.06 96 1016.9
20170426211534 55 208 1.0 6.0 0.01 0.06 0.06 96 1016.9
20170426211020 55 208 0.0 5.0 0.01 0.06 0.06 96 1017.2
20170426210529 55 208 0.0 7.0 0.01 0.06 0.06 96 1017.3
20170426210035 56 208 1.0 7.0 0.01 0.06 0.06 96 1017.3
20170426205523 56 208 0.0 4.0 0.00 0.05 0.05 96 1017.3
20170426205032 56 208 0.0 4.0 0.00 0.05 0.05 96 1017.3
20170426204522 56 208 0.0 4.0 0.00 0.05 0.05 96 1017.3
20170426204028 56 208 0.0 6.0 0.00 0.05 0.05 96 1017.2
20170426203521 56 208 0.0 6.0 0.00 0.05 0.05 96 1017.2
20170426203030 56 208 0.0 7.0 0.00 0.05 0.05 96 1017.2
20170426202517 56 208 2.0 7.0 0.00 0.05 0.05 96 1017.1
20170426202024 56 208 1.0 7.0 0.00 0.05 0.05 95 1017.2
20170426201533 56 209 1.0 6.0 0.00 0.05 0.05 95 1017.2
20170426201020 56 209 1.0 5.0 0.00 0.05 0.05 96 1017.1
20170426200529 56 209 1.0 7.0 0.00 0.05 0.05 96 1017.1
20170426200018 56 209 1.0 7.0 0.00 0.05 0.05 96 1017.1
20170426195526 56 209 2.0 7.0 0.00 0.05 0.05 96 1016.9
20170426195019 56 209 1.0 7.0 0.00 0.05 0.05 95 1016.7
20170426194527 56 209 2.0 7.0 0.00 0.05 0.05 95 1017.1
20170426194035 56 209 1.0 7.0 0.00 0.05 0.05 96 1017.1
20170426193522 56 210 0.0 6.0 0.01 0.05 0.05 96 1016.7
20170426193032 56 210 0.0 9.0 0.01 0.05 0.05 96 1016.9
20170426192520 56 211 2.0 10.0 0.01 0.05 0.05 96 1017.1
20170426192028 57 242 1.0 8.0 0.01 0.05 0.05 96 1017.4
20170426191518 57 243 1.0 8.0 0.02 0.05 0.05 97 1017.4
20170426191026 56 248 2.0 8.0 0.02 0.05 0.05 98 1017.4
20170426190520 56 251 0.0 8.0 0.02 0.05 0.05 98 1017.4
20170426190026 56 251 0.0 8.0 0.02 0.05 0.05 97 1017.6
20170426185536 56 251 0.0 2.0 0.02 0.05 0.05 97 1017.8
20170426185023 55 251 0.0 0.0 0.02 0.05 0.05 97 1017.7
20170426184532 55 251 0.0 3.0 0.02 0.05 0.05 97 1017.7
20170426184019 55 251 0.0 3.0 0.02 0.05 0.05 97 1017.6
20170426183530 55 251 0.0 6.0 0.01 0.04 0.04 97 1017.9
20170426183019 55 251 1.0 6.0 0.02 0.04 0.04 97 1018.1
20170426182530 54 251 2.0 6.0 0.02 0.04 0.04 96 1017.9
20170426182019 54 251 0.0 5.0 0.02 0.04 0.04 96 1017.9
20170426181530 54 251 1.0 8.0 0.01 0.03 0.03 96 1017.6
20170426181019 55 251 1.0 8.0 0.01 0.03 0.03 96 1017.6
20170426180526 55 254 0.0 9.0 0.01 0.03 0.03 96 1017.4
20170426180034 55 254 0.0 9.0 0.01 0.03 0.03 96 1017.4
20170426175522 55 265 0.0 7.0 0.02 0.03 0.03 96 1017.4
20170426175031 55 267 1.0 8.0 0.02 0.03 0.03 96 1017.4
20170426174520 55 267 2.0 8.0 0.02 0.03 0.03 96 1017.3
20170426174029 55 279 0.0 5.0 0.02 0.03 0.03 96 1017.3
20170426173521 55 279 0.0 9.0 0.02 0.03 0.03 96 1017.3
20170426173031 55 279 1.0 9.0 0.01 0.02 0.02 96 1017.2
20170426172518 54 284 0.0 6.0 0.02 0.02 0.02 96 1017.5
20170426172025 54 284 1.0 8.0 0.02 0.02 0.02 95 1017.5
20170426171536 55 302 1.0 5.0 0.02 0.02 0.02 95 1017.5
20170426171023 55 309 0.0 4.0 0.02 0.02 0.02 96 1017.2
20170426170534 55 309 0.0 5.0 0.02 0.02 0.02 96 1017.1
20170426170020 54 309 0.0 5.0 0.01 0.01 0.01 96 1017.0
20170426165532 54 309 0.0 4.0 0.01 0.01 0.01 96 1017.0
20170426165023 54 309 0.0 0.0 0.01 0.01 0.01 96 1017.3
20170426164534 54 309 0.0 0.0 0.01 0.01 0.01 95 1017.4
20170426164019 54 309 0.0 0.0 0.01 0.01 0.01 95 1017.4
20170426163529 54 309 0.0 4.0 0.01 0.01 0.01 95 1017.2
20170426163018 54 309 0.0 5.0 0.00 0.00 0.00 95 1017.2
20170426162526 54 309 0.0 7.0 0.00 0.00 0.00 95 1017.2
20170426162031 54 309 1.0 7.0 0.00 0.00 0.00 94 1017.3
20170426161521 54 315 0.0 2.0 0.00 0.00 0.00 95 1017.1
20170426161031 54 315 0.0 3.0 0.00 0.00 0.00 95 1017.1
20170426160523 53 315 0.0 3.0 0.00 0.00 0.00 95 1017.2
20170426160031 53 315 0.0 3.0 0.00 0.00 0.00 95 1017.3
20170426155520 53 315 0.0 0.0 0.00 0.00 0.00 95 1017.5
20170426155031 53 315 0.0 0.0 0.00 0.00 0.00 95 1017.4
20170426154520 53 315 0.0 2.0 0.00 0.00 0.00 95 1017.5
20170426154029 53 315 0.0 4.0 0.00 0.00 0.00 95 1017.4
20170426153518 53 315 0.0 4.0 0.00 0.00 0.00 95 1017.5
20170426153028 53 315 0.0 3.0 0.00 0.00 0.00 95 1017.5
20170426152519 53 315 0.0 3.0 0.00 0.00 0.00 95 1017.6
20170426152029 53 315 0.0 2.0 0.00 0.00 0.00 95 1017.5
20170426151518 53 315 0.0 4.0 0.00 0.00 0.00 95 1017.5
20170426151025 53 315 0.0 4.0 0.00 0.00 0.00 96 1017.6
20170426150535 53 315 0.0 0.0 0.00 0.00 0.00 95 1017.6
20170426150022 53 315 0.0 0.0 0.00 0.00 0.00 95 1017.9
20170426145532 53 315 0.0 0.0 0.00 0.00 0.00 95 1017.7
20170426145020 52 315 0.0 2.0 0.00 0.00 0.00 95 1018.1
20170426144531 52 315 0.0 2.0 0.00 0.00 0.00 95 1018.0
20170426144021 52 315 0.0 3.0 0.00 0.00 0.00 95 1018.0
20170426143531 52 315 0.0 4.0 0.00 0.00 0.00 95 1017.9
20170426143020 52 315 0.0 0.0 0.00 0.00 0.00 95 1018.0
20170426142529 52 315 0.0 4.0 0.00 0.00 0.00 95 1017.9
20170426142036 52 315 1.0 4.0 0.00 0.00 0.00 95 1017.7
20170426141524 52 316 0.0 4.0 0.00 0.00 0.00 94 1017.4
20170426141034 52 316 0.0 3.0 0.00 0.00 0.00 94 1017.3
20170426140522 52 316 0.0 3.0 0.00 0.00 0.00 95 1017.4
20170426140029 52 316 0.0 0.0 0.00 0.00 0.00 94 1017.5
20170426135521 52 316 0.0 0.0 0.00 0.00 0.00 95 1017.5
20170426135030 52 316 0.0 0.0 0.00 0.00 0.00 95 1017.6
20170426134520 52 316 0.0 0.0 0.00 0.00 0.00 95 1017.5
20170426134028 52 316 0.0 0.0 0.00 0.00 0.00 94 1017.6
20170426133537 52 316 0.0 0.0 0.00 0.00 0.00 94 1017.6
20170426133025 52 316 0.0 0.0 0.00 0.00 0.00 95 1017.4
20170426132534 52 316 0.0 0.0 0.00 0.00 0.00 95 1017.4
20170426132021 52 316 0.0 0.0 0.00 0.00 0.00 95 1017.2
20170426131533 52 316 0.0 0.0 0.00 0.00 0.00 95 1017.1
20170426131024 52 316 0.0 0.0 0.00 0.00 0.00 94 1017.1
20170426130534 52 316 0.0 0.0 0.00 0.00 0.00 94 1017.1
20170426130022 52 316 0.0 0.0 0.00 0.00 0.00 94 1017.2
20170426125531 52 316 0.0 2.0 0.00 0.00 0.00 94 1016.8
20170426125019 52 316 0.0 2.0 0.00 0.00 0.00 94 1016.7
20170426124530 52 316 0.0 2.0 0.00 0.00 0.00 94 1016.5
20170426124018 52 316 0.0 2.0 0.00 0.00 0.00 94 1016.5
20170426123526 52 316 0.0 1.0 0.00 0.00 0.00 94 1016.6
20170426123035 52 316 0.0 4.0 0.00 0.00 0.00 94 1016.6
20170426122528 52 316 0.0 5.0 0.00 0.00 0.00 94 1016.7
20170426122036 52 316 0.0 5.0 0.00 0.00 0.00 94 1016.6
20170426121525 52 317 0.0 0.0 0.00 0.00 0.00 94 1016.8
20170426121034 52 317 0.0 0.0 0.00 0.00 0.00 94 1016.7
20170426120523 52 317 0.0 0.0 0.00 0.00 0.00 94 1016.7
20170426120033 52 317 0.0 0.0 0.00 0.00 0.00 94 1016.5
20170426115521 52 317 0.0 0.0 0.00 0.00 0.00 93 1016.0
20170426115030 52 317 0.0 0.0 0.00 0.00 0.00 93 1016.0
20170426114520 52 317 0.0 0.0 0.00 0.00 0.00 93 1016.2
20170426114032 52 317 0.0 0.0 0.00 0.00 0.00 93 1016.3
20170426113520 52 317 0.0 0.0 0.00 0.00 0.00 93 1015.9
20170426113030 52 317 0.0 0.0 0.00 0.00 0.00 93 1015.8
20170426112518 52 317 0.0 0.0 0.00 0.00 0.00 93 1016.1
20170426112025 52 317 0.0 0.0 0.00 0.00 0.00 93 1016.4
20170426111533 52 317 0.0 0.0 0.00 0.00 0.00 94 1016.4
20170426111021 52 317 0.0 0.0 0.00 0.00 0.00 93 1016.3
20170426110531 52 317 0.0 0.0 0.00 0.00 0.00 93 1016.2
20170426110018 52 317 0.0 0.0 0.00 0.00 0.00 93 1016.1
20170426105532 52 317 0.0 0.0 0.00 0.00 0.00 93 1016.3
20170426105020 52 317 0.0 0.0 0.00 0.00 0.00 93 1016.3
20170426104529 52 317 0.0 0.0 0.00 0.00 0.00 93 1016.4
20170426104017 52 317 0.0 0.0 0.00 0.00 0.00 93 1016.4
20170426103525 52 317 0.0 0.0 0.00 0.00 0.00 92 1016.4
20170426103035 52 317 0.0 0.0 0.00 0.00 0.00 92 1016.4
20170426102523 52 317 0.0 0.0 0.00 0.00 0.00 92 1016.7
20170426102033 53 317 0.0 0.0 0.00 0.00 0.00 93 1016.8
20170426101523 53 317 0.0 2.0 0.00 0.00 0.00 93 1017.0
20170426101017 53 317 0.0 2.0 0.00 0.00 0.00 92 1017.0
20170426100525 53 317 0.0 0.0 0.00 0.00 0.00 92 1016.9
20170426100033 53 317 0.0 0.0 0.00 0.00 0.00 92 1016.8
20170426095521 53 317 0.0 2.0 0.00 0.00 0.00 92 1016.8
20170426095032 53 317 0.0 2.0 0.00 0.00 0.00 92 1016.7
20170426094522 53 317 0.0 0.0 0.00 0.00 0.00 92 1016.7
20170426094027 53 317 0.0 0.0 0.00 0.00 0.00 91 1017.0
20170426093517 53 317 0.0 0.0 0.00 0.00 0.00 91 1017.0
20170426093028 53 317 0.0 0.0 0.00 0.00 0.00 91 1016.9
20170426092521 53 317 0.0 0.0 0.00 0.00 0.00 91 1016.8
20170426092027 53 317 0.0 0.0 0.00 0.00 0.00 91 1017.0
20170426091538 53 317 0.0 0.0 0.00 0.00 0.00 91 1017.0
20170426091025 53 317 0.0 2.0 0.00 0.00 0.00 91 1017.0
20170426090536 53 317 0.0 0.0 0.00 0.00 0.00 91 1017.1
20170426090022 53 317 0.0 0.0 0.00 0.00 0.00 91 1017.4
20170426085533 54 317 0.0 0.0 0.00 0.00 0.00 91 1017.3
20170426085020 54 317 0.0 0.0 0.00 0.00 0.00 91 1017.2
20170426084529 54 317 0.0 0.0 0.00 0.00 0.00 91 1017.3
20170426084021 54 317 0.0 0.0 0.00 0.00 0.00 90 1017.3
20170426083532 54 317 0.0 0.0 0.00 0.00 0.00 90 1017.3
20170426083022 54 317 0.0 0.0 0.00 0.00 0.00 91 1017.7
20170426082531 54 317 0.0 0.0 0.00 0.00 0.00 91 1017.9
20170426082018 54 317 0.0 0.0 0.00 0.00 0.00 90 1017.7
20170426081528 54 317 0.0 0.0 0.00 0.00 0.00 90 1017.6
20170426081037 54 317 0.0 0.0 0.00 0.00 0.00 90 1017.7
20170426080525 54 317 0.0 0.0 0.00 0.00 0.00 90 1017.9
20170426080019 54 317 0.0 0.0 0.00 0.00 0.00 90 1017.7
20170426075527 54 317 0.0 0.0 0.00 0.00 0.00 90 1017.8
20170426075017 54 317 0.0 0.0 0.00 0.00 0.00 90 1017.6
20170426074526 54 317 0.0 0.0 0.00 0.00 0.00 90 1017.6
20170426074033 54 317 0.0 0.0 0.00 0.00 0.00 89 1017.8
20170426073521 54 317 0.0 0.0 0.00 0.00 0.00 89 1017.7
20170426073032 54 317 0.0 0.0 0.00 0.00 0.00 89 1017.9
20170426072521 54 317 0.0 0.0 0.00 0.00 0.00 89 1018.0
20170426072029 54 317 0.0 0.0 0.00 0.00 0.00 89 1018.0
20170426071521 54 317 0.0 0.0 0.00 0.00 0.00 89 1018.0
20170426071030 54 317 0.0 0.0 0.00 0.00 0.00 88 1018.1
20170426070519 54 317 0.0 0.0 0.00 0.00 0.00 88 1018.1
20170426070024 55 317 0.0 0.0 0.00 0.00 0.00 88 1018.2
20170426065535 55 317 0.0 0.0 0.00 0.00 0.00 88 1018.3
20170426065022 55 317 0.0 0.0 0.00 0.00 0.00 87 1018.1
20170426064534 55 317 0.0 0.0 0.00 0.00 0.00 87 1018.1
20170426064020 55 317 0.0 0.0 0.00 0.00 0.00 87 1018.1
20170426063531 55 317 0.0 0.0 0.00 0.00 0.00 87 1018.1
20170426063021 55 317 0.0 0.0 0.00 0.00 0.00 87 1018.2
20170426062530 55 317 0.0 0.0 0.00 0.00 0.00 87 1018.1
20170426062039 55 317 0.0 0.0 0.00 0.00 0.00 87 1018.0
20170426061527 55 317 0.0 0.0 0.00 0.00 0.00 87 1018.1
20170426061037 55 317 0.0 0.0 0.00 0.00 0.00 87 1018.1
20170426060524 55 317 0.0 0.0 0.00 0.00 0.00 87 1018.2
20170426060031 55 317 0.0 0.0 0.00 0.00 0.00 87 1018.1
20170426055538 55 317 0.0 0.0 0.00 0.00 0.00 86 1018.1
20170426055027 55 317 0.0 0.0 0.00 0.00 0.00 85 1018.4
20170426054521 55 317 0.0 0.0 0.00 0.00 0.00 85 1018.2
20170426054026 55 317 0.0 0.0 0.00 0.00 0.00 84 1018.4
20170426053537 56 317 0.0 0.0 0.00 0.00 0.00 83 1018.4
20170426053025 56 317 0.0 0.0 0.00 0.00 0.00 83 1018.1
20170426052534 56 317 0.0 0.0 0.00 0.00 0.00 83 1018.1
20170426052021 56 317 0.0 0.0 0.00 0.00 0.00 83 1018.6
20170426051532 56 317 0.0 0.0 0.00 0.00 0.00 82 1019.1
20170426051020 56 317 0.0 0.0 0.00 0.00 0.00 82 1019.0
20170426050528 56 317 0.0 0.0 0.00 0.00 0.00 82 1018.7
20170426050020 56 317 0.0 0.0 0.00 0.00 0.00 83 1018.4
20170426045529 56 317 0.0 0.0 0.00 0.00 0.00 82 1018.2
20170426045017 57 317 0.0 0.0 0.00 0.00 0.00 82 1018.2
20170426044525 57 317 0.0 0.0 0.00 0.00 0.00 81 1018.1
20170426044034 57 317 0.0 0.0 0.00 0.00 0.00 81 1018.1
20170426043523 57 317 0.0 0.0 0.00 0.00 0.00 80 1018.0
20170426043034 57 317 0.0 0.0 0.00 0.00 0.00 80 1018.0
20170426042522 57 317 0.0 0.0 0.00 0.00 0.00 80 1017.8
20170426042031 57 317 0.0 0.0 0.00 0.00 0.00 79 1017.6
20170426041521 57 317 0.0 0.0 0.00 0.00 0.00 79 1017.5
20170426041031 58 317 0.0 0.0 0.00 0.00 0.00 78 1017.6
20170426040520 58 317 0.0 2.0 0.00 0.00 0.00 78 1017.6
20170426040027 58 317 0.0 2.0 0.00 0.00 0.00 77 1017.9
20170426035516 58 317 0.0 3.0 0.00 0.00 0.00 76 1018.0
20170426035026 58 317 0.0 1.0 0.00 0.00 0.00 76 1018.0
20170426034517 58 317 0.0 1.0 0.00 0.00 0.00 75 1017.9
20170426034022 58 317 0.0 0.0 0.00 0.00 0.00 73 1018.2
20170426033531 59 317 0.0 2.0 0.00 0.00 0.00 71 1018.1
20170426033022 59 317 0.0 2.0 0.00 0.00 0.00 67 1018.1
20170426032531 59 317 0.0 1.0 0.00 0.00 0.00 61 1018.1
20170426032038 59 317 0.0 0.0 0.00 0.00 0.00 50 1018.0
20170426031527 60 317 0.0 0.0 0.00 0.00 0.00 49 1017.9
20170426031037 60 317 0.0 0.0 0.00 0.00 0.00 48 1017.9